Stündliche Wetter Kysylyn

Heute, 11 Mai, Dienstag

Zeit Temperatur Niederschläge Wind Luftdruck Luftfeuchtigkeit
00:00 +10°C° 0 mm 4 m/S 745 mmHg 83%
01:00 +10°C° 0 mm 4 m/S 745 mmHg 83%
02:00 +8°C° 0 mm 4 m/S 746 mmHg 83%
03:00 +8°C° 0 mm 4 m/S 746 mmHg 82%
04:00 +8°C° 0 mm 4 m/S 746 mmHg 82%
05:00 +7°C° 0 mm 4 m/S 746 mmHg 82%
06:00 +9°C° 0 mm 5 m/S 746 mmHg 77%
07:00 +12°C° 0 mm 5 m/S 746 mmHg 72%
08:00 +14°C° 0 mm 6 m/S 746 mmHg 68%
09:00 +15°C° 0 mm 6 m/S 746 mmHg 64%
10:00 +16°C° 0 mm 7 m/S 745 mmHg 60%
11:00 +18°C° 0 mm 7 m/S 745 mmHg 56%
12:00 +18°C° 0 mm 7 m/S 745 mmHg 54%
13:00 +20°C° 0 mm 6 m/S 745 mmHg 51%
14:00 +20°C° 0 mm 6 m/S 745 mmHg 48%
15:00 +20°C° 0 mm 6 m/S 744 mmHg 51%
16:00 +20°C° 0 mm 6 m/S 744 mmHg 53%
17:00 +20°C° 0 mm 5 m/S 744 mmHg 55%
18:00 +17°C° 0 mm 5 m/S 743 mmHg 62%
19:00 +15°C° 0 mm 4 m/S 743 mmHg 69%
20:00 +13°C° 0 mm 4 m/S 743 mmHg 75%
21:00 +12°C° 0 mm 4 m/S 743 mmHg 79%
22:00 +12°C° 0 mm 4 m/S 743 mmHg 82%
23:00 +12°C° 0 mm 4 m/S 743 mmHg 85%

Morgen, 12 Mai, Mittwoch

Zeit Temperatur Niederschläge Wind Luftdruck Luftfeuchtigkeit
00:00 +11°C° 0 mm 4 m/S 743 mmHg 87%
01:00 +11°C° 0 mm 4 m/S 742 mmHg 89%
02:00 +11°C° 0 mm 4 m/S 742 mmHg 90%
03:00 +10°C° 0 mm 4 m/S 742 mmHg 91%
04:00 +10°C° 0 mm 3 m/S 742 mmHg 92%
05:00 +10°C° 0 mm 3 m/S 741 mmHg 94%
06:00 +10°C° 0 mm 5 m/S 741 mmHg 90%
07:00 +13°C° 0 mm 6 m/S 741 mmHg 87%
08:00 +14°C° 0 mm 7 m/S 742 mmHg 84%
09:00 +14°C° 0 mm 7 m/S 741 mmHg 78%
10:00 +15°C° 0 mm 7 m/S 741 mmHg 71%
11:00 +16°C° 0 mm 7 m/S 741 mmHg 65%
12:00 +16°C° 0 mm 7 m/S 741 mmHg 61%
13:00 +16°C° 0 mm 7 m/S 741 mmHg 56%
14:00 +16°C° 0 mm 7 m/S 741 mmHg 52%
15:00 +16°C° 0 mm 7 m/S 740 mmHg 55%
16:00 +16°C° 0 mm 7 m/S 740 mmHg 58%
17:00 +15°C° 0 mm 7 m/S 740 mmHg 61%
18:00 +14°C° 0 mm 7 m/S 740 mmHg 65%
19:00 +11°C° 0 mm 7 m/S 740 mmHg 69%
20:00 +9°C° 0 mm 6 m/S 740 mmHg 73%
21:00 +8°C° 0 mm 6 m/S 740 mmHg 75%
22:00 +7°C° 0 mm 5 m/S 739 mmHg 78%
23:00 +6°C° 0 mm 4 m/S 739 mmHg 81%

übermorgen, 13 Mai, Donnerstag

Zeit Temperatur Niederschläge Wind Luftdruck Luftfeuchtigkeit
00:00 +6°C° 0 mm 4 m/S 739 mmHg 83%
01:00 +5°C° 0 mm 3 m/S 738 mmHg 86%
02:00 +4°C° 0 mm 3 m/S 738 mmHg 89%
03:00 +4°C° 0 mm 3 m/S 737 mmHg 90%
04:00 +4°C° 0 mm 3 m/S 737 mmHg 91%
05:00 +4°C° 0 mm 4 m/S 736 mmHg 91%
06:00 +6°C° 0 mm 4 m/S 736 mmHg 85%
07:00 +8°C° 0 mm 5 m/S 736 mmHg 78%
08:00 +10°C° 0 mm 6 m/S 736 mmHg 71%
09:00 +11°C° 0 mm 6 m/S 735 mmHg 69%
10:00 +13°C° 0 mm 6 m/S 735 mmHg 67%
11:00 +14°C° 0 mm 6 m/S 735 mmHg 65%
12:00 +13°C° 0 mm 6 m/S 734 mmHg 70%
13:00 +11°C° 0 mm 6 m/S 734 mmHg 76%
14:00 +11°C° 0 mm 6 m/S 734 mmHg 81%
15:00 +10°C° 0.1 mm 5 m/S 734 mmHg 84%
16:00 +10°C° 0.1 mm 5 m/S 734 mmHg 86%
17:00 +11°C° 0.1 mm 4 m/S 733 mmHg 89%
18:00 +11°C° 0.2 mm 4 m/S 733 mmHg 91%
19:00 +11°C° 0.2 mm 4 m/S 733 mmHg 94%
20:00 +11°C° 0.2 mm 4 m/S 733 mmHg 96%
21:00 +11°C° 0.1 mm 3 m/S 733 mmHg 96%
22:00 +11°C° 0.1 mm 3 m/S 733 mmHg 96%
23:00 +11°C° 0.1 mm 3 m/S 733 mmHg 96%

14 Mai, Freitag

Zeit Temperatur Niederschläge Wind Luftdruck Luftfeuchtigkeit
00:00 +11°C° 0 mm 4 m/S 733 mmHg 96%
01:00 +11°C° 0 mm 4 m/S 733 mmHg 95%
02:00 +11°C° 0 mm 4 m/S 733 mmHg 94%
03:00 +11°C° 0 mm 4 m/S 733 mmHg 94%
04:00 +11°C° 0 mm 4 m/S 733 mmHg 94%
05:00 +10°C° 0 mm 4 m/S 733 mmHg 93%
06:00 +10°C° 0 mm 5 m/S 733 mmHg 89%
07:00 +12°C° 0 mm 5 m/S 733 mmHg 86%
08:00 +13°C° 0 mm 5 m/S 734 mmHg 82%
09:00 +14°C° 0 mm 5 m/S 734 mmHg 76%
10:00 +15°C° 0 mm 6 m/S 734 mmHg 69%
11:00 +16°C° 0 mm 6 m/S 734 mmHg 63%
12:00 +16°C° 0 mm 6 m/S 734 mmHg 63%
13:00 +16°C° 0 mm 5 m/S 735 mmHg 64%
14:00 +16°C° 0 mm 5 m/S 735 mmHg 64%
15:00 +16°C° 0 mm 5 m/S 735 mmHg 66%
16:00 +15°C° 0 mm 5 m/S 735 mmHg 69%
17:00 +14°C° 0 mm 5 m/S 736 mmHg 71%
18:00 +13°C° 0 mm 5 m/S 736 mmHg 76%
19:00 +12°C° 0 mm 4 m/S 736 mmHg 82%
20:00 +10°C° 0 mm 3 m/S 736 mmHg 87%
21:00 +10°C° 0 mm 3 m/S 737 mmHg 86%
22:00 +10°C° 0 mm 3 m/S 737 mmHg 85%
23:00 +10°C° 0 mm 3 m/S 737 mmHg 84%

15 Mai, Samstag

Zeit Temperatur Niederschläge Wind Luftdruck Luftfeuchtigkeit
00:00 +9°C° 0 mm 3 m/S 737 mmHg 86%
01:00 +8°C° 0 mm 4 m/S 737 mmHg 89%
02:00 +8°C° 0 mm 4 m/S 737 mmHg 91%
03:00 +8°C° 0.3 mm 4 m/S 737 mmHg 92%
04:00 +8°C° 0.3 mm 4 m/S 737 mmHg 94%
05:00 +8°C° 0.3 mm 4 m/S 738 mmHg 95%
06:00 +8°C° 0.1 mm 4 m/S 738 mmHg 93%
07:00 +10°C° 0.1 mm 3 m/S 738 mmHg 91%
08:00 +10°C° 0.1 mm 3 m/S 738 mmHg 89%
09:00 +11°C° 0 mm 4 m/S 739 mmHg 83%
10:00 +13°C° 0 mm 4 m/S 739 mmHg 77%
11:00 +14°C° 0 mm 4 m/S 739 mmHg 71%
12:00 +15°C° 0.1 mm 4 m/S 739 mmHg 68%
13:00 +15°C° 0.1 mm 4 m/S 739 mmHg 65%
14:00 +17°C° 0.1 mm 3 m/S 739 mmHg 62%
15:00 +17°C° 0 mm 3 m/S 739 mmHg 60%
16:00 +18°C° 0 mm 3 m/S 739 mmHg 59%
17:00 +18°C° 0 mm 3 m/S 739 mmHg 57%
18:00 +17°C° 0 mm 2 m/S 739 mmHg 63%
19:00 +15°C° 0 mm 1 m/S 738 mmHg 69%
20:00 +13°C° 0 mm 1 m/S 738 mmHg 75%
21:00 +13°C° 0 mm 1 m/S 739 mmHg 77%
22:00 +12°C° 0 mm 1 m/S 739 mmHg 79%
23:00 +11°C° 0 mm 1 m/S 739 mmHg 80%

16 Mai, Sonntag

Zeit Temperatur Niederschläge Wind Luftdruck Luftfeuchtigkeit
00:00 +11°C° 0 mm 1 m/S 739 mmHg 82%
01:00 +11°C° 0 mm 1 m/S 739 mmHg 84%
02:00 +10°C° 0 mm 1 m/S 739 mmHg 85%
03:00 +9°C° 0 mm 0 m/S 739 mmHg 85%
04:00 +9°C° 0 mm 0 m/S 739 mmHg 85%
05:00 +9°C° 0 mm 0 m/S 739 mmHg 85%
06:00 +11°C° 0 mm 0 m/S 740 mmHg 81%
07:00 +12°C° 0 mm 0 m/S 740 mmHg 77%
08:00 +15°C° 0 mm 1 m/S 740 mmHg 73%
09:00 +16°C° 0.1 mm 1 m/S 740 mmHg 69%
10:00 +19°C° 0.1 mm 1 m/S 740 mmHg 65%
11:00 +20°C° 0.1 mm 1 m/S 740 mmHg 61%
12:00 +20°C° 0.2 mm 2 m/S 740 mmHg 61%
13:00 +20°C° 0.2 mm 2 m/S 740 mmHg 60%
14:00 +20°C° 0.2 mm 2 m/S 740 mmHg 60%
15:00 +20°C° 0.3 mm 2 m/S 740 mmHg 64%
16:00 +19°C° 0.3 mm 3 m/S 739 mmHg 68%
17:00 +19°C° 0.3 mm 3 m/S 739 mmHg 72%
18:00 +18°C° 1.2 mm 3 m/S 739 mmHg 77%
19:00 +16°C° 1.2 mm 3 m/S 739 mmHg 83%
20:00 +14°C° 1.2 mm 3 m/S 739 mmHg 88%
21:00 +15°C° 1.3 mm 2 m/S 739 mmHg 90%
22:00 +14°C° 1.3 mm 1 m/S 739 mmHg 93%
23:00 +14°C° 1.3 mm 1 m/S 739 mmHg 95%
Mehr zeigen

Wir brauchen deine Erlaubnis

Meteoprog und unser Service Anbieter werden persönliche Daten aufbewahren, so wie Cookies, Geräte Bezeichnung oder ähnliche Technologien von deinem Gerät und Prozess, so wie Persönliche Daten Inhalte und Werbungen, genauso wie social Media und den Verkehr zu analysieren.

  • Aufbewahrung und/oder Zugang zu deiner Geräte Informationen.

    Cookies, Geräte Bezeichnung oder andere Informationen, können aufbewahrt oder Zugang zu deinem Gerät erhalten, für den Grund, der oben angegeben wird.

  • Personalisierte Werbung und Inhalte, Messungen, Einblick in das Publikum und Produkt Entwicklung.

    Werbungen und Inhalte können personalisiert werden, basierend auf ein Profil. Mehr Daten können besser personalisierte Werbungen und Inhalte hinzufügen. Werbung und Inhalte können gezeigt und gemessen werden. Einblicke über das Publikum, welche die Werbung gesehen haben und den Inhalt, können abgeleitet werden. So wie Daten können genutzt werden, um es zu verbessern oder die Benutzer Erfahrung zu verbessern das System und die Software.

Wenn du “Ich stimme zu” klickst, erlaubst du uns, die Cookies zu benutzen die Geräte Bezeichnung, den Web oder ähnliche Technologien zu benutzen. Deine Settings, können in deinem Gerät bei deinem Browser geändert werden.

Für den bestimmten Zweck, berechtigten Interessen beruhen darauf, mehr als auf den Inhalt. Du kannst mehr darüber in unseren Privaten und Cookie Politik lesen.